(515725) = 2014 WT366

Discovered at Catalina on 2011-09-24 by CSS.

Orbit

Orbit type: Hungaria

Note: WebGL enabled browser required.

epoch2023-02-25.0
epoch JD2460000.5
perihelion date2022-04-09.91103
perihelion JD2459679.41103
argument of perihelion (°)30.25617
ascending node (°)311.06473
inclination (°)17.09050
eccentricity0.0794067
perihelion distance (AU)1.7783249
Tisserand w.r.t. Jupiter3.9
ΔV w.r.t. Earth (km/sec)9.8
semimajor axis (AU)1.9317161
mean anomaly (°)117.87299
mean daily motion (°/day)0.36710380
aphelion distance (AU)2.085
period (years)2.68
P-vector [x]0.93055146
P-vector [y]-0.36615155
P-vector [z]0.00264923
Q-vector [x]0.29150884
Q-vector [y]0.74519113
Q-vector [z]0.59976059
absolute magnitude17.6
phase slope0.15
uncertainty0
referenceMPEC 2023-C144
observations used277
oppositions8
arc length (days)5221
first opposition used2008
last opposition used2023
residual rms (arc-secs)0.85
perturbers coarse indicatorM-v
perturbers precise indicator003Ek
first observation date used2008-10-28.0
last observation date used2023-02-13.0
computer nameMPCLINUX
Minimum Orbit Intersection Distances (in AU)
for orbit epoch: 2460000.5, reference: E2023-CE4
Mercury1.37148
Venus1.06491
Earth0.77551
Mars0.40531
Jupiter3.20832
Saturn7.08216
Uranus16.3897
Neptune28.1239

Observations

284 total observations over interval: 2008 10 28.07278 – 2023 02 13.185701
These data are available for download (format description).

Date (UT) J2000 RA J2000 Dec Magn Location Ref
2008 10 28.07278 20 11 36.74 -10 48 48.6 20.7 V G96 – Mt. Lemmon Survey MPS 867644
2008 10 28.07760 20 11 37.21 -10 48 46.0 20.8 V G96 – Mt. Lemmon Survey MPS 867644
2008 10 28.08230 20 11 37.64 -10 48 42.9 20.8 V G96 – Mt. Lemmon Survey MPS 867644
2008 10 28.08711 20 11 38.14 -10 48 39.6 20.8 V G96 – Mt. Lemmon Survey MPS 867644
2011 09 24.22858 00 38 05.35 +38 04 12.4 19.5 V 703 – Catalina Sky Survey MPS 867644
2011 09 24.23586 00 38 04.70 +38 04 16.3 19.2 V 703 – Catalina Sky Survey MPS 867644
2011 09 24.24322 00 38 04.09 +38 04 19.8 19.2 V 703 – Catalina Sky Survey MPS 867644
2011 09 24.25050 00 38 03.44 +38 04 22.6 19.4 V 703 – Catalina Sky Survey MPS 867644
2011 10 06.16534 00 20 30.98 +38 45 59.4 19.3 V 703 – Catalina Sky Survey MPS 867644
2011 10 06.17200 00 20 30.37 +38 45 58.6 19.1 V 703 – Catalina Sky Survey MPS 867644
2011 10 06.17867 00 20 29.86 +38 45 59.2 19.2 V 703 – Catalina Sky Survey MPS 867644
2011 10 06.18543 00 20 29.11 +38 45 57.7 19.4 V 703 – Catalina Sky Survey MPS 867644
2011 11 01.18705 23 51 45.10 +36 01 25.8 20.2 V 703 – Catalina Sky Survey MPS 867644
2011 11 01.19215 23 51 44.92 +36 01 22.4 20.3 V 703 – Catalina Sky Survey MPS 867644
2011 11 01.19727 23 51 44.85 +36 01 19.1 19.6 V 703 – Catalina Sky Survey MPS 867644
2011 11 01.20229 23 51 44.53 +36 01 15.1 19.8 V 703 – Catalina Sky Survey MPS 867644
2014 10 04.58441 06 35 59.699 +42 46 21.88 21.1 w F51 – Pan-STARRS 1, Haleakala MPS 867644
2014 10 04.59723 06 36 00.941 +42 46 24.61 21.0 w F51 – Pan-STARRS 1, Haleakala MPS 867644
2014 10 04.61005 06 36 02.200 +42 46 27.21 20.9 w F51 – Pan-STARRS 1, Haleakala MPS 867644
2014 10 04.62292 06 36 03.462 +42 46 30.02 20.8 w F51 – Pan-STARRS 1, Haleakala MPS 867644
2014 11 27.30637 07 06 50.14 +45 23 25.1 19.3 V 703 – Catalina Sky Survey MPS 549841
2014 11 27.31380 07 06 49.72 +45 23 24.8 20.2 V 703 – Catalina Sky Survey MPS 549841
2014 11 27.32123 07 06 49.30 +45 23 25.6 20.1 V 703 – Catalina Sky Survey MPS 549841
2014 11 27.32865 07 06 48.96 +45 23 27.4 19.9 V 703 – Catalina Sky Survey MPS 549841
2014 11 28.50644 07 05 44.10 +45 24 50.5 20.7 V I52 – Steward Observatory, Mt. Lemmon Station MPS 549841
2014 11 28.51186 07 05 43.75 +45 24 50.7 20.6 V I52 – Steward Observatory, Mt. Lemmon Station MPS 549841
2014 11 28.51720 07 05 43.44 +45 24 51.0 20.7 V I52 – Steward Observatory, Mt. Lemmon Station MPS 549841
2014 11 28.52246 07 05 43.15 +45 24 51.7 20.8 V I52 – Steward Observatory, Mt. Lemmon Station MPS 549841
2014 11 30.339194 07 03 55.04 +45 26 24.2 19.6 V H21 – Astronomical Research Observatory, Westfield MPS 549841
2014 11 30.343905 07 03 54.71 +45 26 24.7 19.8 V H21 – Astronomical Research Observatory, Westfield MPS 549841
2014 11 30.348420 07 03 54.39 +45 26 25.1 19.8 V H21 – Astronomical Research Observatory, Westfield MPS 549841
2014 12 21.47417 06 31 35.549 +44 27 09.69 20.0 w F51 – Pan-STARRS 1, Haleakala MPS 559078
2014 12 21.48738 06 31 34.036 +44 27 04.05 20.0 w F51 – Pan-STARRS 1, Haleakala MPS 559078
2014 12 21.50065 06 31 32.468 +44 26 58.17 19.9 w F51 – Pan-STARRS 1, Haleakala MPS 559078
2016 06 29.47490 19 04 37.50 -42 22 56.4 18.9 R Q60 – ISON-SSO Observatory, Siding Spring MPS 867644
2016 06 29.48447 19 04 36.49 -42 22 50.8 19.2 R Q60 – ISON-SSO Observatory, Siding Spring MPS 867644
2016 06 29.49420 19 04 35.47 -42 22 46.6 19.5 R Q60 – ISON-SSO Observatory, Siding Spring MPS 867644
2017 12 16.43410 10 30 15.45 +10 35 49.6 21.3 G G96 – Mt. Lemmon Survey MPS 867644
2017 12 16.43922 10 30 15.56 +10 35 46.8 21.4 G G96 – Mt. Lemmon Survey MPS 867644
2017 12 16.44435 10 30 15.63 +10 35 43.2 21.3 G G96 – Mt. Lemmon Survey MPS 867644
2017 12 16.44950 10 30 15.78 +10 35 40.4 21.0 G G96 – Mt. Lemmon Survey MPS 867644
2017 12 24.51988 10 32 07.57 +09 17 59.2 21.4 G G96 – Mt. Lemmon Survey MPS 867644
2017 12 24.52505 10 32 07.56 +09 17 56.1 21.0 G G96 – Mt. Lemmon Survey MPS 867644
2017 12 24.53025 10 32 07.59 +09 17 53.4 21.5 G G96 – Mt. Lemmon Survey MPS 867644
2017 12 24.53544 10 32 07.59 +09 17 50.6 20.9 G G96 – Mt. Lemmon Survey MPS 867644
2017 12 29.56236 10 32 07.739 +08 32 03.08 20.7 i F51 – Pan-STARRS 1, Haleakala MPS 867644
2017 12 29.57372 10 32 07.651 +08 31 57.17 20.8 i F51 – Pan-STARRS 1, Haleakala MPS 867644
2017 12 29.58508 10 32 07.565 +08 31 51.02 20.8 i F51 – Pan-STARRS 1, Haleakala MPS 867644
2018 01 13.51293 10 26 22.975 +06 30 02.69 20.7 w F51 – Pan-STARRS 1, Haleakala MPS 867644
2018 01 13.51357 10 26 22.957 +06 30 02.51 20.8 w F51 – Pan-STARRS 1, Haleakala MPS 867644
2018 01 13.52468 10 26 22.464 +06 29 57.51 20.8 w F51 – Pan-STARRS 1, Haleakala MPS 867644
2018 01 13.52532 10 26 22.438 +06 29 57.29 20.8 w F51 – Pan-STARRS 1, Haleakala MPS 867644
2018 01 13.53647 10 26 21.956 +06 29 52.43 20.6 w F51 – Pan-STARRS 1, Haleakala MPS 867644
2018 01 13.53711 10 26 21.919 +06 29 52.11 20.7 w F51 – Pan-STARRS 1, Haleakala MPS 867644
2018 01 13.54898 10 26 21.411 +06 29 46.72 20.7 w F51 – Pan-STARRS 1, Haleakala MPS 867644
2018 01 15.33243 10 25 04.49 +06 16 51.8 19.4 G G96 – Mt. Lemmon Survey MPS 867644
2018 01 15.33759 10 25 04.28 +06 16 49.7 19.9 G G96 – Mt. Lemmon Survey MPS 867644
2018 01 15.34275 10 25 04.02 +06 16 47.4 20.4 G G96 – Mt. Lemmon Survey MPS 867644
2018 01 15.34793 10 25 03.77 +06 16 45.2 20.3 G G96 – Mt. Lemmon Survey MPS 867644
2018 01 20.55901 10 20 35.130 +05 41 23.57 20.1 w F51 – Pan-STARRS 1, Haleakala MPS 867644
2018 01 20.57107 10 20 34.405 +05 41 18.90 20.2 w F51 – Pan-STARRS 1, Haleakala MPS 867644
2018 01 20.58308 10 20 33.681 +05 41 14.27 20.1 w F51 – Pan-STARRS 1, Haleakala MPS 867644
2018 01 20.59509 10 20 32.957 +05 41 09.60 20.1 w F51 – Pan-STARRS 1, Haleakala MPS 867644
2018 01 27.33092 10 13 17.83 +05 00 44.6 19.2 G G96 – Mt. Lemmon Survey MPS 867644
2018 01 27.33566 10 13 17.45 +05 00 42.9 19.8 G G96 – Mt. Lemmon Survey MPS 867644
2018 01 27.34041 10 13 17.09 +05 00 41.4 19.7 G G96 – Mt. Lemmon Survey MPS 867644
2018 01 27.34516 10 13 16.73 +05 00 39.7 19.7 G G96 – Mt. Lemmon Survey MPS 867644
2018 02 05.42102 10 01 22.63 +04 16 10.1 19.6 G G96 – Mt. Lemmon Survey MPS 867644
2018 02 05.42857 10 01 21.94 +04 16 08.8 19.7 G G96 – Mt. Lemmon Survey MPS 867644
2018 02 05.43369 10 01 21.49 +04 16 07.7 19.6 G G96 – Mt. Lemmon Survey MPS 867644
2018 02 05.43882 10 01 21.06 +04 16 05.6 19.9 G G96 – Mt. Lemmon Survey MPS 867644
2018 02 09.32239 09 55 45.17 +04 00 37.2 20.9 G 703 – Catalina Sky Survey MPS 867644
2018 02 09.33281 09 55 44.09 +04 00 35.5 20.5 G 703 – Catalina Sky Survey MPS 867644
2018 02 09.33802 09 55 43.60 +04 00 32.4 20.7 G 703 – Catalina Sky Survey MPS 867644
2018 02 11.44226 09 52 37.041 +03 53 04.00 20.1 w F51 – Pan-STARRS 1, Haleakala MPS 867644
2018 02 11.45434 09 52 35.922 +03 53 01.47 20.1 w F51 – Pan-STARRS 1, Haleakala MPS 867644
2018 02 11.46641 09 52 34.809 +03 52 59.02 20.0 w F51 – Pan-STARRS 1, Haleakala MPS 867644
2018 02 11.47850 09 52 33.695 +03 52 56.50 20.1 w F51 – Pan-STARRS 1, Haleakala MPS 867644
2018 02 12.68526 09 50 45.82 +03 48 52.7 19.2 R P93 – Space Tracking and Communications Center, JAXA MPS 867644
2018 02 12.69128 09 50 45.26 +03 48 52.4 19.4 R P93 – Space Tracking and Communications Center, JAXA MPS 867644
2018 02 12.69428 09 50 45.00 +03 48 51.9 19.5 R P93 – Space Tracking and Communications Center, JAXA MPS 867644
2018 02 12.69730 09 50 44.73 +03 48 51.0 19.7 R P93 – Space Tracking and Communications Center, JAXA MPS 867644
2018 02 12.70630 09 50 43.88 +03 48 49.6 19.3 R P93 – Space Tracking and Communications Center, JAXA MPS 867644
2018 02 23.23587 09 35 13.84 +03 21 14.3 19.5 G G96 – Mt. Lemmon Survey MPS 870130
2018 02 23.24106 09 35 13.36 +03 21 13.6 19.1 G G96 – Mt. Lemmon Survey MPS 870130
2018 02 23.24623 09 35 12.98 +03 21 13.5 19.3 G G96 – Mt. Lemmon Survey MPS 870130
2018 02 23.25140 09 35 12.49 +03 21 12.5 19.7 G G96 – Mt. Lemmon Survey MPS 870130
2018 02 25.22362 09 32 27.39 +03 17 21.7 20.1 G I52 – Steward Observatory, Mt. Lemmon Station MPS 871615
2018 02 25.22589 09 32 27.22 +03 17 21.1 19.9 G I52 – Steward Observatory, Mt. Lemmon Station MPS 871615
2018 02 25.22805 09 32 27.03 +03 17 21.2 19.7 G I52 – Steward Observatory, Mt. Lemmon Station MPS 871615
2018 02 25.23021 09 32 26.83 +03 17 21.2 19.4 G I52 – Steward Observatory, Mt. Lemmon Station MPS 871615
2018 03 17.34294 09 10 48.124 +02 51 56.05 20.7 w F51 – Pan-STARRS 1, Haleakala MPS 876173
2018 03 17.35568 09 10 47.552 +02 51 55.31 20.9 w F51 – Pan-STARRS 1, Haleakala MPS 876173
